FW1932 Weather Reports


time (UTC)temp
C
wind
direction
speed
KPH
gust
KPH
rain 1hr
cm
rain 24hr
cm
rain mn
cm
humidity
%
barometer
mb
20260831060046 17 246 1.6 4.8 0.00 0.43 0.33 87 1020.5
20260831054545 17 252 1.6 6.4 0.00 0.43 0.33 87 1020.6
20260831053043 17 239 1.6 6.4 0.00 0.43 0.33 87 1020.3
20260831051546 17 245 1.6 8.0 0.00 0.43 0.33 87 1020.3
20260831050039 17 241 1.6 9.7 0.00 0.43 0.33 87 1020.1
20260831044550 17 285 3.2 11.3 0.00 0.43 0.33 88 1020.0
20260831043036 17 203 4.8 11.3 0.00 0.43 0.33 89 1019.9
20260831041545 18 212 3.2 12.9 0.00 0.43 0.33 89 1019.9
20260831040032 18 240 1.6 11.3 0.00 0.43 0.33 90 1019.7
20260831034531 18 246 0.0 3.2 0.00 0.43 0.33 91 1019.5
20260831033031 18 250 0.0 3.2 0.00 0.43 0.33 90 1019.3
20260831031530 18 259 0.0 4.8 0.00 0.43 0.33 90 1019.3
20260831030028 18 240 0.0 3.2 0.00 0.43 0.33 89 1019.3
20260831024529 18 245 1.6 4.8 0.00 0.43 0.33 89 1019.1
20260831023026 18 251 0.0 4.8 0.00 0.43 0.33 88 1019.1
20260831021533 18 259 1.6 4.8 0.00 0.43 0.33 88 1019.0
20260831020025 18 254 0.0 4.8 0.00 0.43 0.33 89 1018.8
20260831014526 18 236 1.6 6.4 0.00 0.43 0.33 89 1018.6
20260831013027 18 246 3.2 8.0 0.00 0.43 0.33 89 1018.7
20260831011522 18 225 4.8 9.7 0.00 0.43 0.33 89 1018.7
20260831010022 18 253 3.2 11.3 0.00 0.43 0.33 88 1018.8
20260831004619 18 239 3.2 9.7 0.00 0.43 0.33 89 1018.8
20260831003019 18 235 3.2 9.7 0.00 0.43 0.33 88 1018.4
20260831001517 18 248 3.2 9.7 0.00 0.43 0.33 89 1018.5
20260831000033 18 252 1.6 12.9 0.05 0.43 0.33 88 1018.2
20260830234516 18 264 0.0 3.2 0.05 0.43 0.33 90 1018.1
20260830233019 18 248 0.0 4.8 0.05 0.43 0.33 90 1018.0
20260830231512 18 239 3.2 11.3 0.05 0.43 0.33 89 1018.2
20260830230013 18 81 0.0 9.7 0.23 0.36 0.25 92 1018.2
20260830224508 18 250 0.0 4.8 0.36 0.36 0.25 93 1017.8
20260830223006 18 94 1.6 6.4 0.36 0.36 0.25 91 1016.4
20260830221502 19 103 0.0 4.8 0.36 0.36 0.25 89 1017.0
20260830214602 22 95 0.0 1.6 0.00 0.00 0.00 71 1015.8
20260830213056 22 104 0.0 4.8 0.00 0.00 0.00 66 1015.2
20260830211557 22 77 0.0 1.6 0.00 0.00 0.00 66 1015.3
20260830210100 23 74 0.0 3.2 0.00 0.00 0.00 66 1015.4
20260830204553 22 99 0.0 0.0 0.00 0.00 0.00 68 1015.6
20260830203051 23 99 0.0 1.6 0.00 0.00 0.00 66 1015.6
20260830201550 23 97 1.6 3.2 0.00 0.00 0.00 65 1015.6
20260830200049 23 79 0.0 3.2 0.00 0.00 0.00 65 1015.7
20260830194549 23 84 0.0 4.8 0.00 0.00 0.00 64 1015.8
20260830193049 23 243 0.0 1.6 0.00 0.00 0.00 64 1015.8
20260830191548 24 243 0.0 1.6 0.00 0.00 0.00 62 1015.8
20260830190048 25 243 0.0 1.6 0.00 0.00 0.00 61 1015.8
20260830184548 25 243 0.0 1.6 0.00 0.00 0.00 59 1015.8
20260830183047 25 243 0.0 1.6 0.00 0.00 0.00 59 1015.7
20260830181548 25 242 0.0 3.2 0.00 0.00 0.00 57 1015.6
20260830180049 26 237 0.0 1.6 0.00 0.00 0.00 57 1015.6
20260830174545 26 238 0.0 3.2 0.00 0.00 0.00 56 1015.7
20260830173045 26 237 0.0 4.8 0.00 0.00 0.00 55 1015.8
20260830171545 26 239 0.0 3.2 0.00 0.00 0.00 55 1015.7
20260830170044 27 230 0.0 1.6 0.00 0.00 0.00 55 1015.7
20260830164558 27 207 0.0 3.2 0.00 0.00 0.00 53 1015.8
20260830163042 27 229 0.0 1.6 0.00 0.00 0.00 52 1015.8
20260830161541 28 255 0.0 4.8 0.00 0.00 0.00 50 1015.8
20260830160041 30 243 1.6 4.8 0.00 0.00 0.00 47 1015.8
20260830154541 30 236 0.0 1.6 0.00 0.00 0.00 49 1015.7
20260830153039 31 217 0.0 4.8 0.00 0.00 0.00 46 1015.9
20260830151541 31 90 1.6 6.4 0.00 0.00 0.00 46 1016.0
20260830150036 30 239 1.6 8.0 0.00 0.00 0.00 46 1016.1
20260830144533 30 117 0.0 3.2 0.00 0.00 0.00 50 1016.1
20260830143037 30 234 3.2 9.7 0.00 0.00 0.00 49 1016.3
20260830141538 30 226 1.6 6.4 0.00 0.00 0.00 48 1016.4
20260830140027 30 235 3.2 9.7 0.00 0.00 0.00 52 1016.6
20260830134536 30 247 0.0 4.8 0.00 0.00 0.00 51 1016.7
20260830133024 29 238 4.8 8.0 0.00 0.00 0.00 51 1016.9
20260830131520 28 55 0.0 4.8 0.00 0.00 0.00 55 1017.1
20260830130019 28 240 0.0 8.0 0.00 0.00 0.00 56 1017.2
20260830124516 28 240 0.0 4.8 0.00 0.00 0.00 58 1017.4
20260830123015 27 248 0.0 6.4 0.00 0.00 0.00 55 1017.5
20260830121514 27 246 0.0 8.0 0.00 0.00 0.00 57 1017.5
20260830120013 28 241 1.6 6.4 0.00 0.00 0.00 55 1017.6
20260830114511 28 229 0.0 6.4 0.00 0.00 0.00 58 1017.7
20260830113007 27 236 1.6 8.0 0.00 0.00 0.00 59 1017.7
20260830111504 26 240 3.2 11.3 0.00 0.00 0.00 61 1017.7
20260830110005 25 192 3.2 16.1 0.00 0.00 0.00 61 1017.9
20260830104502 26 224 3.2 9.7 0.00 0.00 0.00 62 1017.8
20260830103059 25 252 1.6 8.0 0.00 0.00 0.00 64 1018.1
20260830101559 24 247 1.6 8.0 0.00 0.00 0.00 68 1018.2
20260830100057 23 243 3.2 9.7 0.00 0.00 0.00 67 1018.4
20260830094556 24 215 1.6 9.7 0.00 0.00 0.00 66 1018.3
20260830093107 24 253 3.2 6.4 0.00 0.00 0.00 65 1018.4
20260830091557 24 239 1.6 12.9 0.00 0.00 0.00 66 1018.4
20260830090057 25 244 1.6 11.3 0.00 0.00 0.00 65 1018.3
20260830084601 25 233 0.0 6.4 0.00 0.00 0.00 67 1018.3
20260830083052 24 224 3.2 8.0 0.00 0.00 0.00 65 1018.4
20260830081554 23 230 0.0 6.4 0.00 0.00 0.00 68 1018.4
20260830080044 22 248 1.6 8.0 0.00 0.00 0.00 69 1018.6
20260830074547 22 263 3.2 9.7 0.00 0.00 0.00 68 1018.5
20260830073048 22 129 0.0 6.4 0.00 0.00 0.00 68 1018.3
20260830071552 21 200 1.6 11.3 0.00 0.00 0.00 71 1018.3
20260830070041 21 259 3.2 12.9 0.00 0.00 0.00 71 1018.3
20260830064541 21 215 1.6 4.8 0.00 0.00 0.00 72 1018.4
20260830063042 21 243 3.2 8.0 0.00 0.00 0.00 72 1018.3
20260830061540 21 240 1.6 9.7 0.00 0.00 0.00 72 1018.2